This demonstration page uses our WeatherBlox Daily Observations layout. Learn more.

Left ArrowRight Arrow

34.74481, -87.66753

Hourly Observations for July 8, 2019

Temp ( °F °C ) Dew Point ( °F °C ) Humidity (%) Winds ( mph kmh ) Pressure ( in mb ) Visibility ( mi km ) Precip ( " mm )
12:53 am 00:53 Clear 74 23.3 71 21.7 91 91 SSE 3 6 29.91 1013 10 16 0.00 0.00
1:53 am 01:53 Clear 74 23.3 71 21.7 91 91 Calm 29.91 1013 10 16 0.00 0.00
2:53 am 02:53 Clear 73 22.8 71 21.7 94 94 Calm 29.91 1013 10 16 0.00 0.00
3:53 am 03:53 Clear 73 22.8 71 21.7 94 94 Calm 29.90 1012 10 16 0.00 0.00
4:53 am 04:53 Clear 73 22.8 70 21.1 90 90 Calm 29.90 1013 10 16 0.00 0.00
5:53 am 05:53 Mostly Sunny 74 23.3 71 21.7 91 91 Calm 29.91 1013 10 16 0.00 0.00
6:53 am 06:53 Mostly Sunny 75 23.9 72 22.2 90 90 WNW 5 7 29.93 1014 10 16 0.00 0.00
7:23 am 07:23 Mostly Cloudy 76 24.4 73 22.8 91 91 W 3 6 29.95 1014 10 16 0.00 0.00
7:53 am 07:53 Cloudy 77 25 74 23.3 90 90 WNW 5 7 29.95 1014 10 16 0.00 0.00
8:35 am 08:35 Mostly Sunny 80 26.7 75 23.9 85 85 Calm 29.95 1014 10 16 0.00 0.00
8:53 am 08:53 Sunny 82 27.8 75 23.9 79 79 N 3 6 29.96 1015 10 16 0.00 0.00
10:53 am 10:53 Mostly Cloudy 87 30.6 75 23.9 67 67 E 6 9 29.94 1014 10 16 0.00 0.00
11:40 am 11:40 Partly Cloudy 91 32.8 74 23.3 57 57 VRB 3 6 29.92 1013 10 16 0.00 0.00
11:53 am 11:53 Mostly Sunny 89 31.7 74 23.3 61 61 VRB 6 9 29.93 1014 10 16 0.00 0.00
12:53 pm 12:53 Partly Cloudy 92 33.3 73 22.8 54 54 undefined N/A 29.93 1014 10 16 0.00 0.00
1:53 pm 13:53 Partly Cloudy 93 33.9 73 22.8 52 52 N 3 6 29.91 1013 10 16 0.00 0.00
2:53 pm 14:53 Mostly Sunny 95 35 73 22.8 49 49 NNW 6 9 29.89 1012 10 16 0.00 0.00
3:53 pm 15:53 Mostly Sunny 94 34.4 74 23.3 52 52 VRB 6 9 29.88 1012 10 16 0.00 0.00
4:53 pm 16:53 Sunny 95 35 72 22.2 47 47 N 3 6 29.88 1012 10 16 0.00 0.00
5:53 pm 17:53 Sunny 94 34.4 73 22.8 51 51 N 5 7 29.87 1011 10 16 0.00 0.00
6:53 pm 18:53 Sunny 92 33.3 72 22.2 52 52 N 6 9 29.86 1011 10 16 0.00 0.00
7:53 pm 19:53 Sunny 88 31.1 73 22.8 61 61 N 3 6 29.88 1012 10 16 0.00 0.00
8:53 pm 20:53 Clear 86 30 74 23.3 67 67 N 3 6 29.90 1013 10 16 0.00 0.00
9:53 pm 21:53 Clear 83 28.3 74 23.3 74 74 NNE 3 6 29.91 1013 10 16 0.00 0.00
10:53 pm 22:53 Clear 83 28.3 75 23.9 77 77 N 3 6 29.92 1013 10 16 0.00 0.00
11:53 pm 23:53 Clear 82 27.8 75 23.9 79 79 Calm 29.92 1013 10 16 0.00 0.00

Powered by AerisWeather